This is the latest recevied weather packets stored in our database for station/object HB9FHL-13. If no packets are shown the sender has not sent any weather packets the latest 10 day(s).
| Time | Temp. | Humidity | Pressure | Rain* | Wind** | Luminosity | Snow |
|---|---|---|---|---|---|---|---|
| 1788181924 | 21.67° C | - | 1024.9 hPa | 3.3 mm | - | - | - |
| 1788181623 | 21.11° C | - | 1018.9 hPa | 3.3 mm | - | - | - |
| 1788181375 | 21.67° C | - | 1021.4 hPa | 3.3 mm | - | - | - |
| 1788181323 | 21.67° C | - | 1021.4 hPa | 3.3 mm | - | - | - |
| 1788181023 | 21.67° C | - | 1025.5 hPa | 3.3 mm | - | - | - |
| 1788180722 | 21.11° C | - | 1023.3 hPa | 3.3 mm | - | - | - |
| 1788180421 | 21.67° C | - | 1017.8 hPa | 3.3 mm | - | - | - |
| 1788180121 | 21.11° C | - | 1016.7 hPa | 3.3 mm | - | - | - |
| 1788179821 | 20.56° C | - | 1022.4 hPa | 3.3 mm | - | - | - |
| 1788179520 | 21.11° C | - | 1019.1 hPa | 3.3 mm | - | - | - |
| 1788179220 | 20.56° C | - | 1020.8 hPa | 3.3 mm | - | - | - |
| 1788178962 | 20.56° C | - | 1018.8 hPa | 3.3 mm | - | - | - |
| 1788178919 | 20.56° C | - | 1018.8 hPa | 3.3 mm | - | - | - |
| 1788178688 | 21.11° C | - | 1023.3 hPa | 3.3 mm | - | - | - |
| 1788178636 | 21.11° C | - | 1023.3 hPa | 3.3 mm | - | - | - |
| 1788178365 | 20° C | - | 1022.1 hPa | 3.3 mm | - | - | - |
| 1788178317 | 20° C | - | 1022.1 hPa | 3.3 mm | - | - | - |
| 1788178080 | 20.56° C | - | 1023.7 hPa | 3.3 mm | - | - | - |
| 1788178016 | 20.56° C | - | 1023.7 hPa | 3.3 mm | - | - | - |
| 1788177716 | 20.56° C | - | 1021.4 hPa | 3.3 mm | - | - | - |
| 1788177415 | 20° C | - | 1021.5 hPa | 3.3 mm | - | - | - |
| 1788177158 | 19.44° C | - | 1020.8 hPa | 3.3 mm | - | - | - |
| 1788177115 | 19.44° C | - | 1020.8 hPa | 3.3 mm | - | - | - |
| 1788176814 | 18.89° C | - | 1018.5 hPa | 3.3 mm | - | - | - |
| 1788176514 | 20° C | - | 1021.4 hPa | 3.3 mm | - | - | - |
* Rain since midnight (hover to see other rain measurements)
** Current wind speed in m/s (hover to see current wind gust speed)